| time (UTC) | temp C | wind direction | speed KPH | gust KPH | rain 1hr cm | rain 24hr cm | rain mn cm | humidity % | barometer mb |
| 20260503002103 | 15 | 303 | 0.0 | 3.2 | 0.00 | 0.10 | 0.10 | 54 | 1014.6 |
| 20260503001552 | 16 | 303 | 1.6 | 3.2 | 0.00 | 0.10 | 0.10 | 51 | 1014.5 |
| 20260503001100 | 16 | 303 | 0.0 | 3.2 | 0.00 | 0.10 | 0.10 | 48 | 1014.3 |
| 20260503000548 | 16 | 303 | 0.0 | 3.2 | 0.00 | 0.10 | 0.10 | 47 | 1014.2 |
| 20260503000058 | 16 | 303 | 0.0 | 1.6 | 0.00 | 0.10 | 0.10 | 46 | 1014.1 |
| 20260502235603 | 16 | 303 | 0.0 | 1.6 | 0.00 | 0.10 | 0.10 | 46 | 1014.0 |
| 20260502235048 | 16 | 303 | 0.0 | 3.2 | 0.00 | 0.10 | 0.10 | 46 | 1013.8 |
| 20260502234557 | 16 | 303 | 1.6 | 4.8 | 0.00 | 0.10 | 0.10 | 45 | 1013.8 |
| 20260502234050 | 17 | 303 | 1.6 | 4.8 | 0.00 | 0.10 | 0.10 | 45 | 1013.7 |
| 20260502233601 | 17 | 323 | 1.6 | 4.8 | 0.00 | 0.10 | 0.10 | 44 | 1013.7 |
| 20260502233051 | 17 | 323 | 1.6 | 4.8 | 0.00 | 0.10 | 0.10 | 45 | 1013.6 |
| 20260502232557 | 17 | 328 | 1.6 | 4.8 | 0.00 | 0.10 | 0.10 | 45 | 1013.5 |
| 20260502232046 | 17 | 328 | 1.6 | 6.4 | 0.00 | 0.10 | 0.10 | 43 | 1013.5 |
| 20260502231555 | 17 | 322 | 3.2 | 6.4 | 0.00 | 0.10 | 0.10 | 43 | 1013.5 |
| 20260502230553 | 17 | 219 | 1.6 | 4.8 | 0.00 | 0.10 | 0.10 | 42 | 1013.4 |
| 20260502225552 | 17 | 342 | 3.2 | 6.4 | 0.00 | 0.10 | 0.10 | 42 | 1013.3 |
| 20260502225104 | 17 | 316 | 3.2 | 6.4 | 0.00 | 0.10 | 0.10 | 41 | 1013.3 |
| 20260502224553 | 17 | 326 | 3.2 | 9.7 | 0.00 | 0.10 | 0.10 | 41 | 1013.3 |
| 20260502224101 | 17 | 322 | 3.2 | 8.0 | 0.00 | 0.10 | 0.10 | 39 | 1013.3 |
| 20260502223546 | 17 | 300 | 1.6 | 6.4 | 0.00 | 0.10 | 0.10 | 40 | 1013.2 |
| 20260502222556 | 18 | 329 | 3.2 | 6.4 | 0.00 | 0.10 | 0.10 | 40 | 1013.1 |
| 20260502222046 | 18 | 319 | 3.2 | 8.0 | 0.00 | 0.10 | 0.10 | 41 | 1013.0 |
| 20260502221556 | 18 | 259 | 1.6 | 8.0 | 0.00 | 0.10 | 0.10 | 39 | 1012.9 |
| 20260502221104 | 18 | 335 | 3.2 | 6.4 | 0.00 | 0.10 | 0.10 | 39 | 1012.9 |
| 20260502220552 | 18 | 320 | 3.2 | 8.0 | 0.00 | 0.10 | 0.10 | 40 | 1012.8 |
| 20260502215055 | 18 | 320 | 1.6 | 6.4 | 0.00 | 0.10 | 0.10 | 37 | 1012.7 |
| 20260502214603 | 18 | 331 | 3.2 | 6.4 | 0.00 | 0.10 | 0.10 | 38 | 1012.6 |
| 20260502213603 | 18 | 356 | 4.8 | 8.0 | 0.00 | 0.10 | 0.10 | 38 | 1012.5 |
| 20260502213054 | 18 | 350 | 3.2 | 8.0 | 0.00 | 0.10 | 0.10 | 39 | 1012.4 |
| 20260502212601 | 18 | 326 | 1.6 | 4.8 | 0.00 | 0.10 | 0.10 | 41 | 1012.3 |
| 20260502212104 | 18 | 330 | 3.2 | 6.4 | 0.00 | 0.10 | 0.10 | 42 | 1012.3 |
| 20260502211556 | 19 | 309 | 3.2 | 8.0 | 0.00 | 0.10 | 0.10 | 42 | 1012.4 |
| 20260502211103 | 18 | 180 | 3.2 | 6.4 | 0.00 | 0.10 | 0.10 | 43 | 1012.3 |
| 20260502210506 | 18 | 353 | 1.6 | 8.0 | 0.00 | 0.10 | 0.10 | 43 | 1011.7 |
| 20260502205103 | 19 | 304 | 3.2 | 4.8 | 0.00 | 0.10 | 0.10 | 41 | 1012.1 |
| 20260502204551 | 19 | 324 | 3.2 | 6.4 | 0.00 | 0.10 | 0.10 | 43 | 1012.1 |
| 20260502204058 | 19 | 331 | 3.2 | 6.4 | 0.00 | 0.10 | 0.10 | 43 | 1012.1 |
| 20260502203545 | 19 | 326 | 1.6 | 4.8 | 0.00 | 0.10 | 0.10 | 43 | 1012.1 |
| 20260502202557 | 20 | 326 | 3.2 | 14.5 | 0.00 | 0.10 | 0.10 | 43 | 1012.1 |
| 20260502202045 | 20 | 259 | 1.6 | 14.5 | 0.00 | 0.10 | 0.10 | 45 | 1012.1 |
| 20260502201556 | 20 | 273 | 3.2 | 8.0 | 0.00 | 0.10 | 0.10 | 40 | 1012.0 |
| 20260502201046 | 20 | 205 | 3.2 | 16.1 | 0.00 | 0.10 | 0.10 | 42 | 1012.1 |
| 20260502200052 | 20 | 191 | 4.8 | 12.9 | 0.00 | 0.10 | 0.10 | 44 | 1012.0 |
| 20260502195553 | 20 | 349 | 3.2 | 6.4 | 0.00 | 0.10 | 0.10 | 44 | 1012.1 |
| 20260502195103 | 20 | 314 | 1.6 | 9.7 | 0.00 | 0.10 | 0.10 | 45 | 1012.1 |
| 20260502194553 | 20 | 205 | 4.8 | 9.7 | 0.00 | 0.10 | 0.10 | 49 | 1012.2 |
| 20260502194059 | 20 | 200 | 3.2 | 8.0 | 0.00 | 0.10 | 0.10 | 48 | 1012.2 |
| 20260502193549 | 20 | 335 | 3.2 | 8.0 | 0.00 | 0.10 | 0.10 | 48 | 1012.1 |
| 20260502193101 | 20 | 337 | 0.0 | 4.8 | 0.00 | 0.10 | 0.10 | 50 | 1012.2 |
| 20260502192546 | 20 | 339 | 3.2 | 11.3 | 0.00 | 0.10 | 0.10 | 48 | 1012.1 |
| 20260502192056 | 20 | 264 | 3.2 | 11.3 | 0.00 | 0.10 | 0.10 | 47 | 1012.1 |
| 20260502191600 | 20 | 273 | 1.6 | 8.0 | 0.00 | 0.10 | 0.10 | 48 | 1012.1 |
| 20260502191052 | 20 | 330 | 1.6 | 4.8 | 0.00 | 0.10 | 0.10 | 49 | 1012.1 |
| 20260502190600 | 20 | 346 | 1.6 | 4.8 | 0.00 | 0.10 | 0.10 | 49 | 1012.1 |
| 20260502190501 | 20 | 346 | 1.6 | 4.8 | 0.00 | 0.10 | 0.10 | 49 | 1011.6 |
| 20260502185108 | 20 | 195 | 3.2 | 9.7 | 0.00 | 0.10 | 0.10 | 48 | 1012.0 |
| 20260502184555 | 21 | 279 | 1.6 | 4.8 | 0.00 | 0.10 | 0.10 | 49 | 1012.1 |
| 20260502184057 | 20 | 318 | 1.6 | 12.9 | 0.00 | 0.10 | 0.10 | 54 | 1012.0 |
| 20260502183608 | 21 | 245 | 3.2 | 12.9 | 0.00 | 0.10 | 0.10 | 52 | 1012.0 |
| 20260502183054 | 20 | 340 | 1.6 | 12.9 | 0.00 | 0.10 | 0.10 | 54 | 1012.0 |
| 20260502182600 | 21 | 297 | 1.6 | 12.9 | 0.00 | 0.10 | 0.10 | 51 | 1012.1 |
| 20260502181556 | 21 | 221 | 4.8 | 9.7 | 0.00 | 0.10 | 0.10 | 55 | 1012.1 |
| 20260502180555 | 20 | 186 | 1.6 | 9.7 | 0.00 | 0.10 | 0.10 | 54 | 1012.2 |
| 20260502170120 | 19 | 297 | 1.6 | 8.0 | 0.00 | 0.10 | 0.10 | 62 | 1012.6 |
| 20260502162553 | 17 | 295 | 3.2 | 6.4 | 0.00 | 0.10 | 0.10 | 66 | 1012.9 |
| 20260502162058 | 17 | 272 | 1.6 | 3.2 | 0.00 | 0.10 | 0.10 | 67 | 1013.0 |
| 20260502161058 | 16 | 272 | 1.6 | 4.8 | 0.00 | 0.10 | 0.10 | 71 | 1013.0 |
| 20260502160546 | 16 | 272 | 3.2 | 4.8 | 0.00 | 0.10 | 0.10 | 70 | 1013.1 |
| 20260502152055 | 15 | 321 | 0.0 | 3.2 | 0.00 | 0.10 | 0.10 | 79 | 1013.3 |
| 20260502151603 | 14 | 321 | 1.6 | 3.2 | 0.00 | 0.10 | 0.10 | 79 | 1013.3 |
| 20260502151051 | 14 | 321 | 1.6 | 3.2 | 0.00 | 0.10 | 0.10 | 77 | 1013.2 |
| 20260502150606 | 14 | 319 | 1.6 | 3.2 | 0.00 | 0.10 | 0.10 | 79 | 1013.1 |
| 20260502140107 | 12 | 158 | 0.0 | 1.6 | 0.00 | 0.10 | 0.10 | 91 | 1012.6 |
| 20260502130549 | 11 | 160 | 0.0 | 0.0 | 0.03 | 0.10 | 0.10 | 95 | 1011.8 |
| 20260502123602 | 11 | 160 | 0.0 | 0.0 | 0.00 | 0.08 | 0.08 | 95 | 1012.9 |
| 20260502123056 | 11 | 160 | 0.0 | 0.0 | 0.00 | 0.08 | 0.08 | 95 | 1013.5 |
| 20260502122602 | 11 | 160 | 0.0 | 0.0 | 0.00 | 0.08 | 0.08 | 95 | 1013.4 |
| 20260502122054 | 11 | 160 | 0.0 | 0.0 | 0.00 | 0.08 | 0.08 | 95 | 1013.0 |
| 20260502121602 | 11 | 160 | 0.0 | 0.0 | 0.03 | 0.08 | 0.08 | 95 | 1012.5 |
| 20260502121054 | 11 | 160 | 0.0 | 0.0 | 0.03 | 0.08 | 0.08 | 95 | 1012.3 |
| 20260502115554 | 11 | 160 | 0.0 | 0.0 | 0.03 | 0.08 | 0.08 | 95 | 1012.1 |
| 20260502115104 | 11 | 160 | 0.0 | 0.0 | 0.03 | 0.08 | 0.08 | 95 | 1012.3 |
| 20260502115006 | 11 | 160 | 0.0 | 0.0 | 0.03 | 0.08 | 0.08 | 95 | 1011.9 |
| 20260502114603 | 11 | 160 | 0.0 | 0.0 | 0.03 | 0.08 | 0.08 | 95 | 1012.8 |
| 20260502114054 | 11 | 160 | 0.0 | 0.0 | 0.03 | 0.08 | 0.08 | 95 | 1012.7 |
| 20260502113545 | 11 | 160 | 0.0 | 0.0 | 0.03 | 0.08 | 0.08 | 95 | 1012.1 |
| 20260502113058 | 12 | 160 | 0.0 | 0.0 | 0.03 | 0.08 | 0.08 | 95 | 1011.7 |
| 20260502112545 | 12 | 159 | 0.0 | 0.0 | 0.03 | 0.08 | 0.08 | 95 | 1011.5 |
| 20260502112051 | 12 | 159 | 0.0 | 0.0 | 0.03 | 0.08 | 0.08 | 95 | 1012.0 |
| 20260502111556 | 12 | 159 | 0.0 | 0.0 | 0.00 | 0.05 | 0.05 | 95 | 1011.9 |
| 20260502111048 | 12 | 159 | 0.0 | 0.0 | 0.00 | 0.05 | 0.05 | 95 | 1012.0 |
| 20260502110559 | 12 | 159 | 0.0 | 0.0 | 0.00 | 0.05 | 0.05 | 95 | 1012.3 |
| 20260502110117 | 12 | 159 | 0.0 | 0.0 | 0.00 | 0.05 | 0.05 | 95 | 1012.6 |
| 20260502105555 | 12 | 160 | 0.0 | 0.0 | 0.00 | 0.05 | 0.05 | 95 | 1012.7 |
| 20260502105047 | 12 | 159 | 0.0 | 0.0 | 0.00 | 0.05 | 0.05 | 95 | 1012.7 |
| 20260502104553 | 12 | 160 | 0.0 | 0.0 | 0.00 | 0.05 | 0.05 | 95 | 1012.7 |
| 20260502104100 | 12 | 159 | 0.0 | 1.6 | 0.00 | 0.05 | 0.05 | 95 | 1012.8 |
| 20260502103549 | 12 | 159 | 0.0 | 4.8 | 0.00 | 0.05 | 0.05 | 95 | 1013.1 |
| 20260502103057 | 12 | 158 | 1.6 | 4.8 | 0.00 | 0.05 | 0.05 | 95 | 1013.0 |
| 20260502102545 | 12 | 178 | 1.6 | 4.8 | 0.00 | 0.05 | 0.05 | 95 | 1012.7 |
| 20260502102053 | 12 | 40 | 0.0 | 1.6 | 0.00 | 0.05 | 0.05 | 95 | 1012.3 |
| 20260502101601 | 12 | 40 | 0.0 | 1.6 | 0.00 | 0.05 | 0.05 | 95 | 1011.8 |
| 20260502101050 | 12 | 40 | 0.0 | 1.6 | 0.00 | 0.05 | 0.05 | 95 | 1012.0 |
| 20260502100556 | 12 | 40 | 0.0 | 0.0 | 0.00 | 0.05 | 0.05 | 95 | 1011.6 |
| 20260502091106 | 13 | 40 | 0.0 | 0.0 | 0.00 | 0.05 | 0.05 | 95 | 1011.6 |
| 20260502090553 | 13 | 40 | 0.0 | 0.0 | 0.00 | 0.05 | 0.05 | 95 | 1011.6 |
| 20260502071103 | 13 | 40 | 0.0 | 0.0 | 0.03 | 0.03 | 0.03 | 94 | 1012.1 |
| 20260502070552 | 13 | 40 | 0.0 | 0.0 | 0.03 | 0.03 | 0.03 | 94 | 1012.3 |
| 20260502065102 | 14 | 40 | 0.0 | 0.0 | 0.00 | 0.00 | 0.00 | 93 | 1012.6 |
| 20260502064554 | 14 | 40 | 0.0 | 0.0 | 0.00 | 0.00 | 0.00 | 93 | 1012.7 |
| 20260502064058 | 14 | 40 | 0.0 | 0.0 | 0.00 | 0.00 | 0.00 | 93 | 1012.8 |
| 20260502063545 | 14 | 40 | 0.0 | 0.0 | 0.00 | 0.00 | 0.00 | 93 | 1012.8 |
| 20260502062603 | 14 | 40 | 0.0 | 1.6 | 0.00 | 0.00 | 0.00 | 93 | 1012.8 |
| 20260502062053 | 14 | 40 | 0.0 | 0.0 | 0.00 | 0.00 | 0.00 | 93 | 1012.8 |
| 20260502061602 | 14 | 40 | 0.0 | 1.6 | 0.00 | 0.00 | 0.00 | 92 | 1012.8 |
| 20260502061056 | 14 | 40 | 0.0 | 1.6 | 0.00 | 0.00 | 0.00 | 92 | 1012.9 |
| 20260502060049 | 14 | 40 | 0.0 | 0.0 | 0.00 | 0.00 | 0.00 | 92 | 1012.9 |
| 20260502055556 | 14 | 40 | 0.0 | 0.0 | 0.00 | 0.00 | 0.00 | 91 | 1013.0 |
| 20260502055100 | 14 | 40 | 0.0 | 0.0 | 0.00 | 0.00 | 0.00 | 91 | 1013.0 |
| 20260502054549 | 14 | 40 | 0.0 | 0.0 | 0.00 | 0.00 | 0.00 | 91 | 1012.9 |
| 20260502054102 | 14 | 40 | 0.0 | 0.0 | 0.00 | 0.00 | 0.00 | 90 | 1012.9 |
| 20260502053552 | 14 | 40 | 0.0 | 1.6 | 0.00 | 0.00 | 0.00 | 90 | 1012.9 |
| 20260502052546 | 14 | 40 | 0.0 | 0.0 | 0.00 | 0.00 | 0.00 | 89 | 1013.1 |
| 20260502052056 | 14 | 40 | 0.0 | 0.0 | 0.00 | 0.00 | 0.00 | 89 | 1013.0 |
| 20260502051544 | 15 | 40 | 0.0 | 1.6 | 0.00 | 0.00 | 0.00 | 89 | 1013.1 |
| 20260502051054 | 15 | 40 | 0.0 | 1.6 | 0.00 | 0.00 | 0.00 | 89 | 1013.0 |
| 20260502050601 | 15 | 40 | 0.0 | 0.0 | 0.00 | 0.00 | 0.00 | 89 | 1012.8 |
| 20260502050052 | 15 | 40 | 0.0 | 0.0 | 0.00 | 0.00 | 0.00 | 89 | 1012.7 |
| 20260502045557 | 15 | 40 | 0.0 | 1.6 | 0.00 | 0.00 | 0.00 | 89 | 1012.9 |
| 20260502045045 | 15 | 40 | 0.0 | 1.6 | 0.00 | 0.00 | 0.00 | 89 | 1013.0 |
| 20260502044549 | 15 | 40 | 0.0 | 1.6 | 0.00 | 0.00 | 0.00 | 88 | 1013.1 |
| 20260502044058 | 15 | 40 | 0.0 | 0.0 | 0.00 | 0.00 | 0.00 | 88 | 1013.0 |
| 20260502043547 | 15 | 40 | 0.0 | 0.0 | 0.00 | 0.00 | 0.00 | 88 | 1012.8 |
| 20260502043055 | 15 | 40 | 0.0 | 0.0 | 0.00 | 0.00 | 0.00 | 88 | 1012.9 |
| 20260502042600 | 15 | 40 | 0.0 | 0.0 | 0.00 | 0.00 | 0.00 | 88 | 1012.9 |
| 20260502042050 | 15 | 40 | 0.0 | 0.0 | 0.00 | 0.00 | 0.00 | 88 | 1012.9 |
| 20260502041603 | 15 | 40 | 0.0 | 1.6 | 0.00 | 0.00 | 0.00 | 88 | 1012.9 |
| 20260502041047 | 15 | 40 | 0.0 | 1.6 | 0.00 | 0.00 | 0.00 | 88 | 1013.1 |
| 20260502040555 | 15 | 40 | 0.0 | 1.6 | 0.00 | 0.00 | 0.00 | 88 | 1013.3 |
| 20260502040510 | 14 | 40 | 0.0 | 1.6 | 0.00 | 0.00 | 0.00 | 88 | 1012.8 |
| 20260502040115 | 15 | 40 | 0.0 | 0.0 | 0.00 | 0.00 | 0.00 | 88 | 1013.4 |
| 20260502035558 | 15 | 40 | 0.0 | 0.0 | 0.00 | 0.00 | 0.00 | 88 | 1013.5 |
| 20260502034557 | 15 | 40 | 0.0 | 0.0 | 0.00 | 0.00 | 0.00 | 87 | 1013.5 |
| 20260502034047 | 15 | 40 | 0.0 | 0.0 | 0.00 | 0.00 | 0.00 | 87 | 1013.5 |
| 20260502033556 | 15 | 40 | 0.0 | 0.0 | 0.00 | 0.00 | 0.00 | 87 | 1013.5 |
| 20260502033104 | 15 | 40 | 0.0 | 0.0 | 0.00 | 0.00 | 0.00 | 87 | 1013.7 |
| 20260502032547 | 15 | 40 | 0.0 | 0.0 | 0.00 | 0.00 | 0.00 | 87 | 1013.6 |
| 20260502032057 | 15 | 40 | 0.0 | 0.0 | 0.00 | 0.00 | 0.00 | 87 | 1013.5 |
| 20260502031549 | 15 | 40 | 0.0 | 0.0 | 0.00 | 0.00 | 0.00 | 87 | 1013.6 |
| 20260502031056 | 15 | 40 | 0.0 | 0.0 | 0.00 | 0.00 | 0.00 | 87 | 1013.7 |
| 20260502030544 | 15 | 40 | 0.0 | 0.0 | 0.00 | 0.00 | 0.00 | 87 | 1013.7 |
| 20260502030127 | 15 | 40 | 0.0 | 0.0 | 0.00 | 0.00 | 0.00 | 87 | 1013.7 |
| 20260502024045 | 15 | 40 | 0.0 | 0.0 | 0.00 | 0.00 | 0.00 | 86 | 1013.7 |
| 20260502023553 | 15 | 40 | 0.0 | 0.0 | 0.00 | 0.00 | 0.00 | 86 | 1013.7 |
| 20260502023103 | 15 | 40 | 0.0 | 0.0 | 0.00 | 0.00 | 0.00 | 86 | 1013.7 |
| 20260502022547 | 15 | 40 | 0.0 | 1.6 | 0.00 | 0.00 | 0.00 | 86 | 1013.7 |
| 20260502022058 | 15 | 40 | 0.0 | 1.6 | 0.00 | 0.00 | 0.00 | 86 | 1013.7 |
| 20260502021546 | 15 | 40 | 0.0 | 0.0 | 0.00 | 0.00 | 0.00 | 86 | 1013.8 |
| 20260502021055 | 15 | 40 | 0.0 | 1.6 | 0.00 | 0.00 | 0.00 | 86 | 1013.7 |
| 20260502020546 | 15 | 40 | 0.0 | 1.6 | 0.00 | 0.00 | 0.00 | 85 | 1013.7 |
| 20260502020056 | 15 | 40 | 0.0 | 1.6 | 0.00 | 0.00 | 0.00 | 85 | 1013.6 |
| 20260502015556 | 15 | 40 | 0.0 | 3.2 | 0.00 | 0.00 | 0.00 | 85 | 1013.5 |
| 20260502014602 | 15 | 6 | 0.0 | 0.0 | 0.00 | 0.00 | 0.00 | 85 | 1013.4 |
| 20260502014054 | 15 | 6 | 0.0 | 0.0 | 0.00 | 0.00 | 0.00 | 85 | 1013.3 |
| 20260502013547 | 15 | 6 | 0.0 | 0.0 | 0.00 | 0.00 | 0.00 | 85 | 1013.2 |
| 20260502013059 | 15 | 6 | 0.0 | 0.0 | 0.00 | 0.00 | 0.00 | 85 | 1013.2 |
| 20260502012550 | 15 | 6 | 0.0 | 0.0 | 0.00 | 0.00 | 0.00 | 85 | 1013.1 |
| 20260502012101 | 15 | 6 | 0.0 | 0.0 | 0.00 | 0.00 | 0.00 | 84 | 1013.0 |
| 20260502011553 | 15 | 6 | 0.0 | 0.0 | 0.00 | 0.00 | 0.00 | 84 | 1012.9 |
| 20260502011103 | 15 | 6 | 0.0 | 0.0 | 0.00 | 0.00 | 0.00 | 84 | 1012.9 |
| 20260502010552 | 15 | 6 | 0.0 | 0.0 | 0.00 | 0.00 | 0.00 | 83 | 1012.8 |
| 20260502010059 | 15 | 6 | 0.0 | 0.0 | 0.00 | 0.00 | 0.00 | 84 | 1012.8 |
| 20260502005546 | 15 | 6 | 0.0 | 0.0 | 0.00 | 0.00 | 0.00 | 83 | 1012.7 |
| 20260502005058 | 15 | 6 | 0.0 | 0.0 | 0.00 | 0.00 | 0.00 | 83 | 1012.7 |
| 20260502004551 | 15 | 6 | 0.0 | 0.0 | 0.00 | 0.00 | 0.00 | 82 | 1012.6 |
| 20260502004059 | 15 | 6 | 0.0 | 0.0 | 0.00 | 0.00 | 0.00 | 82 | 1012.6 |
| 20260502003549 | 15 | 6 | 0.0 | 0.0 | 0.00 | 0.00 | 0.00 | 83 | 1012.6 |
| 20260502003055 | 15 | 6 | 0.0 | 0.0 | 0.00 | 0.00 | 0.00 | 83 | 1012.7 |
| 20260502002602 | 16 | 6 | 0.0 | 1.6 | 0.00 | 0.00 | 0.00 | 82 | 1012.8 |